STARLINK-3105, 49440

Orbit data source: Space-Track

STARLINK-3105, 49440 is a payload satellite owned by SpaceX/Seattle (US) in LEO that was launched on Sat, 13 Nov 2021 UTC via an FALCON 9 launch vehicle from the Air Force Eastern Test Range (AFETR). Payload-class satellites include a variety of spacecraft equipped with specific instruments for various scientific and technological missions. These include communications satellites like Starlink; space stations such as the ISS; scientific satellites like the Hubble; Earth observation satellites from companies like Planet Labs, Umbra, and HawkEye 360; GPS; miniature CubeSats for education and research; and military/defense satellites.

Loading next visibility...
Identifier
49440, 2021-104AJ
Orbit
LEO
Country
Flag of USUS
Related business
Manufacturer
SpaceX/Seattle
Mission
Operational Commercial Communications
Bus & Motor
STARLINK, Unknown motor
Mass
290 kg wet, ~270 kg dry
Launch date (UTC)
2021-11-13 (5 years ago)
Launch vehicle
FALCON 9
Launch site
Air Force Eastern Test Range (AFETR)
Object type
Payload
Rocket body
Debris
Shape & HBR
Box + 1 Pan, 10.1 m
Radar Cross Section
13.562 m², Large (>1 m²)

Expand to show TLE details & history
Last TLE update: 3 days ago

TLE from 3 days ago
0 STARLINK-3105
1 49440U 21104AJ  26170.56523909 -.00001965  00000-0 -10543-3 0  9993
2 49440  53.1621 111.6763 0001573  79.9780 280.1389 15.08829037254298
Epoch: 2026-06-19T13:33Z
TLE epoch observation values (Epoch: 2026-06-19T13:33:56.657Z)
Latitude
-0.00001°
Longitude
0.39783°
Altitude
540.477 km
Speed
7.593 km/s
True Right ascension
07h 26m 42s
True Declination
0° 00' 00"
Sunlit
Object was in daylight at epoch
Visualization orbit readout
Latitude
Unknown
Longitude
Unknown
Altitude
Unknown
Speed
Unknown
Apparent Right ascension
Unknown
Apparent Declination
Unknown
Sunlit
N/A
Visualization observer readout
Local Sidereal Time
21:27:47
Azimuth
Unknown
Elevation
Unknown
Doppler factor
Unknown
Orbital elements
Apogee altitude
541.119 km
Perigee altitude
538.942 km
Semi-major axis
6,918.168 km
Eccentricity
0.00016
Inclination
53.1621°
RAAN
111.6763°
Arg. of periapsis
79.978°
True anomaly
280.12116°
Mean anomaly
280.1389°
Eccentric anomaly
280.13003°
Mean motion
3.77187 °/min
Orbital period
95.44 mins
BSTAR
-0.00010543
Loading maneuver chart data...
Computing Atmospheric mass density...
Loading historical data...
Loading historical data...
Loading historical data...
Loading historical data...
Loading historical data...
Loading historical data...
Loading historical data...

Documentation

Showing up to 5 results
|